Time,TemperatureF,DewpointF,PressureIn,WindDirection,WindDirectionDegrees,WindSpeedMPH,WindSpeedGustMPH,Humidity,HourlyPrecipIn,Conditions,Clouds,dailyrainin,SoftwareType,DateUTC
2013-05-21 00:03:00,62.0,59.0,30.09,SSW,200,0.0,0.0,91,0.00,,,0.00,,2013-05-21 04:03:00,
2013-05-21 00:13:00,62.0,59.0,30.09,SSW,200,0.0,0.0,91,0.00,,,0.00,,2013-05-21 04:13:00,
2013-05-21 00:23:00,62.0,59.0,30.08,SSW,200,0.0,2.0,91,0.00,,,0.00,,2013-05-21 04:23:00,
2013-05-21 00:33:00,62.0,59.0,30.09,SSW,200,0.0,0.0,91,0.00,,,0.00,,2013-05-21 04:33:00,
2013-05-21 00:42:00,62.0,59.0,30.09,SSW,200,0.0,0.0,91,0.00,,,0.00,,2013-05-21 04:42:00,
2013-05-21 00:52:00,62.0,60.0,30.08,SSW,200,0.0,0.0,92,0.00,,,0.00,,2013-05-21 04:52:00,
2013-05-21 01:02:00,62.0,60.0,30.08,SSW,200,0.0,0.0,93,0.00,,,0.00,,2013-05-21 05:02:00,
2013-05-21 01:12:00,62.0,60.0,30.08,SSW,200,0.0,0.0,93,0.00,,,0.00,,2013-05-21 05:12:00,
2013-05-21 01:22:00,61.0,59.0,30.08,SSW,200,0.0,0.0,93,0.00,,,0.00,,2013-05-21 05:22:00,
2013-05-21 01:32:00,61.0,59.0,30.08,SSW,200,0.0,0.0,93,0.00,,,0.00,,2013-05-21 05:32:00,
2013-05-21 01:42:00,61.0,59.0,30.08,SSW,200,0.0,0.0,94,0.00,,,0.00,,2013-05-21 05:42:00,
2013-05-21 01:51:00,61.0,59.0,30.08,SSW,200,0.0,0.0,94,0.00,,,0.00,,2013-05-21 05:51:00,
2013-05-21 02:02:00,61.0,59.0,30.07,SSW,200,0.0,0.0,93,0.00,,,0.00,,2013-05-21 06:02:00,
2013-05-21 02:12:00,61.0,59.0,30.07,SSW,200,0.0,0.0,93,0.00,,,0.00,,2013-05-21 06:12:00,
2013-05-21 02:21:00,61.0,59.0,30.08,SSW,200,0.0,0.0,93,0.00,,,0.00,,2013-05-21 06:21:00,
2013-05-21 02:32:00,61.0,59.0,30.08,SSW,200,0.0,0.0,94,0.00,,,0.00,,2013-05-21 06:32:00,
2013-05-21 02:42:00,61.0,59.0,30.08,SSW,200,0.0,0.0,94,0.00,,,0.00,,2013-05-21 06:42:00,
2013-05-21 02:52:00,61.0,59.0,30.08,SSW,200,0.0,0.0,94,0.00,,,0.00,,2013-05-21 06:52:00,
2013-05-21 03:01:00,61.0,59.0,30.08,SSW,200,0.0,1.0,94,0.00,,,0.00,,2013-05-21 07:01:00,
2013-05-21 03:11:00,61.0,59.0,30.08,SSW,200,0.0,1.0,94,0.00,,,0.00,,2013-05-21 07:11:00,
2013-05-21 03:22:00,61.0,59.0,30.07,SSW,200,0.0,0.0,93,0.00,,,0.00,,2013-05-21 07:22:00,
2013-05-21 03:32:00,61.0,59.0,30.07,SSW,200,0.0,0.0,94,0.00,,,0.00,,2013-05-21 07:32:00,
2013-05-21 03:42:00,61.0,59.0,30.07,SSW,200,0.0,0.0,94,0.00,,,0.00,,2013-05-21 07:42:00,
2013-05-21 03:52:00,61.0,59.0,30.07,SSW,200,0.0,0.0,94,0.00,,,0.00,,2013-05-21 07:52:00,
2013-05-21 04:02:00,61.0,59.0,30.07,SSW,200,0.0,0.0,94,0.00,,,0.00,,2013-05-21 08:02:00,
2013-05-21 04:11:00,61.0,59.0,30.07,SSW,200,0.0,0.0,94,0.00,,,0.00,,2013-05-21 08:11:00,
2013-05-21 04:21:00,61.0,60.0,30.06,SSW,200,0.0,0.0,95,0.00,,,0.00,,2013-05-21 08:21:00,
2013-05-21 04:31:00,61.0,60.0,30.06,SSW,200,0.0,0.0,95,0.00,,,0.00,,2013-05-21 08:31:00,
2013-05-21 04:42:00,61.0,59.0,30.06,SSW,200,0.0,0.0,94,0.00,,,0.00,,2013-05-21 08:42:00,
2013-05-21 04:52:00,61.0,59.0,30.06,SSW,200,0.0,0.0,94,0.00,,,0.00,,2013-05-21 08:52:00,
2013-05-21 05:01:00,60.0,58.0,30.06,SSW,200,0.0,0.0,94,0.00,,,0.00,,2013-05-21 09:01:00,
2013-05-21 05:11:00,60.0,58.0,30.06,SSW,200,0.0,0.0,94,0.00,,,0.00,,2013-05-21 09:11:00,
2013-05-21 05:21:00,60.0,59.0,30.06,SSW,200,0.0,0.0,95,0.00,,,0.00,,2013-05-21 09:21:00,
2013-05-21 05:33:00,60.0,59.0,30.06,SSW,200,0.0,0.0,96,0.00,,,0.00,,2013-05-21 09:33:00,
2013-05-21 05:42:00,60.0,59.0,30.06,SSW,200,0.0,0.0,96,0.00,,,0.00,,2013-05-21 09:42:00,
2013-05-21 05:52:00,60.0,59.0,30.06,SSW,200,0.0,0.0,96,0.00,,,0.00,,2013-05-21 09:52:00,
2013-05-21 06:03:00,60.0,59.0,30.06,SSW,200,0.0,0.0,96,0.00,,,0.00,,2013-05-21 10:03:00,
2013-05-21 06:12:00,60.0,59.0,30.06,SSW,200,0.0,0.0,96,0.00,,,0.00,,2013-05-21 10:12:00,
2013-05-21 06:22:00,60.0,59.0,30.06,SSW,200,0.0,0.0,96,0.00,,,0.00,,2013-05-21 10:22:00,
2013-05-21 06:33:00,60.0,59.0,30.07,SSW,200,0.0,0.0,96,0.00,,,0.00,,2013-05-21 10:33:00,
2013-05-21 06:42:00,60.0,59.0,30.07,SSW,200,0.0,0.0,96,0.00,,,0.00,,2013-05-21 10:42:00,
2013-05-21 06:52:00,60.0,59.0,30.07,SSW,200,0.0,1.0,96,0.00,,,0.00,,2013-05-21 10:52:00,
2013-05-21 07:02:00,60.0,59.0,30.07,SSW,200,0.0,1.0,95,0.00,,,0.00,,2013-05-21 11:02:00,
2013-05-21 07:12:00,60.0,59.0,30.07,SSW,200,0.0,1.0,95,0.00,,,0.00,,2013-05-21 11:12:00,
2013-05-21 07:22:00,61.0,60.0,30.07,SSW,200,0.0,0.0,95,0.00,,,0.00,,2013-05-21 11:22:00,
2013-05-21 07:32:00,61.0,60.0,30.08,SSW,200,0.0,0.0,95,0.00,,,0.00,,2013-05-21 11:32:00,
2013-05-21 07:42:00,61.0,60.0,30.08,SSW,200,0.0,0.0,95,0.00,,,0.00,,2013-05-21 11:42:00,
2013-05-21 07:51:00,61.0,60.0,30.08,SSW,200,0.0,2.0,95,0.00,,,0.00,,2013-05-21 11:51:00,
2013-05-21 08:01:00,60.0,59.0,30.08,SSW,200,0.0,1.0,95,0.00,,,0.00,,2013-05-21 12:01:00,
2013-05-21 08:11:00,60.0,59.0,30.08,SSW,200,0.0,1.0,95,0.00,,,0.00,,2013-05-21 12:11:00,
2013-05-21 08:21:00,60.0,59.0,30.09,ENE,73,0.0,3.0,96,0.00,,,0.00,,2013-05-21 12:21:00,
2013-05-21 08:32:00,60.0,59.0,30.09,ENE,77,0.0,0.0,96,0.00,,,0.00,,2013-05-21 12:32:00,
2013-05-21 08:42:00,60.0,59.0,30.09,ENE,77,0.0,0.0,96,0.00,,,0.00,,2013-05-21 12:42:00,
2013-05-21 08:51:00,60.0,59.0,30.08,NNE,23,0.0,0.0,96,0.00,,,0.00,,2013-05-21 12:51:00,
2013-05-21 09:01:00,61.0,60.0,30.09,East,97,0.0,1.0,97,0.00,,,0.00,,2013-05-21 13:01:00,
2013-05-21 09:12:00,61.0,60.0,30.09,East,97,0.0,1.0,97,0.00,,,0.00,,2013-05-21 13:12:00,
2013-05-21 09:22:00,62.0,61.0,30.09,NNE,31,0.0,1.0,97,0.00,,,0.00,,2013-05-21 13:22:00,
2013-05-21 09:32:00,63.0,62.0,30.10,ENE,65,0.0,4.0,97,0.00,,,0.00,,2013-05-21 13:32:00,
2013-05-21 09:42:00,63.0,62.0,30.10,ENE,65,0.0,4.0,97,0.00,,,0.00,,2013-05-21 13:42:00,
2013-05-21 09:52:00,63.0,62.0,30.10,ENE,62,0.0,4.0,97,0.00,,,0.00,,2013-05-21 13:52:00,
2013-05-21 10:02:00,65.0,64.0,30.09,East,83,1.0,3.0,96,0.00,,,0.00,,2013-05-21 14:02:00,
2013-05-21 10:11:00,65.0,64.0,30.09,East,83,1.0,3.0,96,0.00,,,0.00,,2013-05-21 14:11:00,
2013-05-21 10:21:00,66.0,65.0,30.09,East,84,0.0,2.0,95,0.00,,,0.00,,2013-05-21 14:21:00,
2013-05-21 10:32:00,67.0,64.0,30.09,East,84,0.0,2.0,91,0.00,,,0.00,,2013-05-21 14:32:00,
2013-05-21 10:42:00,67.0,64.0,30.09,East,84,0.0,2.0,91,0.00,,,0.00,,2013-05-21 14:42:00,
2013-05-21 10:51:00,69.0,65.0,30.08,ESE,103,0.0,3.0,86,0.00,,,0.00,,2013-05-21 14:51:00,
2013-05-21 11:01:00,71.0,65.0,30.08,SSE,160,0.0,3.0,82,0.00,,,0.00,,2013-05-21 15:01:00,
2013-05-21 11:11:00,71.0,65.0,30.08,SSE,160,0.0,3.0,82,0.00,,,0.00,,2013-05-21 15:11:00,
2013-05-21 11:21:00,72.0,63.0,30.07,NW,310,1.0,6.0,73,0.00,,,0.00,,2013-05-21 15:21:00,
2013-05-21 11:33:00,73.0,63.0,30.07,SW,218,1.0,7.0,72,0.00,,,0.00,,2013-05-21 15:33:00,
2013-05-21 11:42:00,73.0,63.0,30.07,SSW,200,0.0,5.0,71,0.00,,,0.00,,2013-05-21 15:42:00,
2013-05-21 11:52:00,73.0,63.0,30.07,SSW,200,0.0,5.0,71,0.00,,,0.00,,2013-05-21 15:52:00,
2013-05-21 12:03:00,74.0,63.0,30.07,NE,37,1.0,5.0,69,0.00,,,0.00,,2013-05-21 16:03:00,
2013-05-21 12:13:00,74.0,63.0,30.07,NE,37,1.0,5.0,69,0.00,,,0.00,,2013-05-21 16:13:00,
2013-05-21 12:23:00,76.0,65.0,30.07,ENE,68,0.0,3.0,70,0.00,,,0.00,,2013-05-21 16:23:00,
2013-05-21 12:32:00,78.0,67.0,30.06,ENE,71,0.0,1.0,69,0.00,,,0.00,,2013-05-21 16:32:00,
2013-05-21 12:42:00,79.0,67.0,30.06,East,86,0.0,2.0,67,0.00,,,0.00,,2013-05-21 16:42:00,
2013-05-21 12:52:00,79.0,67.0,30.06,East,86,0.0,2.0,67,0.00,,,0.00,,2013-05-21 16:52:00,
2013-05-21 13:02:00,78.0,65.0,30.06,SW,218,0.0,2.0,64,0.00,,,0.00,,2013-05-21 17:02:00,
2013-05-21 13:12:00,78.0,65.0,30.06,SW,218,0.0,2.0,64,0.00,,,0.00,,2013-05-21 17:12:00,
2013-05-21 13:23:00,78.0,66.0,30.05,WSW,255,0.0,2.0,66,0.00,,,0.00,,2013-05-21 17:23:00,
2013-05-21 13:33:00,77.0,65.0,30.04,NW,305,0.0,4.0,66,0.00,,,0.00,,2013-05-21 17:33:00,
2013-05-21 13:43:00,78.0,66.0,30.03,ENE,68,0.0,4.0,67,0.00,,,0.00,,2013-05-21 17:43:00,
2013-05-21 13:52:00,78.0,66.0,30.03,ENE,68,0.0,4.0,67,0.00,,,0.00,,2013-05-21 17:52:00,
2013-05-21 14:02:00,80.0,65.0,30.03,ENE,64,0.0,2.0,61,0.00,,,0.00,,2013-05-21 18:02:00,
2013-05-21 14:12:00,80.0,65.0,30.03,ENE,64,0.0,2.0,61,0.00,,,0.00,,2013-05-21 18:12:00,
2013-05-21 14:22:00,82.0,66.0,30.01,ENE,66,1.0,3.0,59,0.00,,,0.00,,2013-05-21 18:22:00,
2013-05-21 14:32:00,83.0,67.0,30.01,ESE,103,0.0,2.0,59,0.00,,,0.00,,2013-05-21 18:32:00,
2013-05-21 14:42:00,84.0,66.0,30.01,ESE,103,2.0,8.0,55,0.00,,,0.00,,2013-05-21 18:42:00,
2013-05-21 14:52:00,84.0,66.0,30.01,ESE,103,2.0,8.0,55,0.00,,,0.00,,2013-05-21 18:52:00,
2013-05-21 15:01:00,86.0,67.0,30.01,SE,131,0.0,2.0,54,0.00,,,0.00,,2013-05-21 19:01:00,
2013-05-21 15:11:00,86.0,67.0,30.01,SE,131,0.0,2.0,54,0.00,,,0.00,,2013-05-21 19:11:00,
2013-05-21 15:21:00,87.0,64.0,30.00,South,181,2.0,8.0,47,0.00,,,0.00,,2013-05-21 19:21:00,
2013-05-21 15:32:00,85.0,65.0,29.99,WSW,245,2.0,7.0,51,0.00,,,0.00,,2013-05-21 19:32:00,
2013-05-21 15:42:00,85.0,65.0,29.99,WSW,245,2.0,7.0,51,0.00,,,0.00,,2013-05-21 19:42:00,
2013-05-21 15:52:00,84.0,66.0,29.99,South,191,1.0,6.0,54,0.00,,,0.00,,2013-05-21 19:52:00,
2013-05-21 16:03:00,85.0,65.0,29.99,SE,133,0.0,7.0,51,0.00,,,0.00,,2013-05-21 20:03:00,
2013-05-21 16:11:00,85.0,65.0,29.99,SE,133,0.0,7.0,51,0.00,,,0.00,,2013-05-21 20:11:00,
2013-05-21 16:22:00,87.0,62.0,29.99,ENE,68,2.0,7.0,43,0.00,,,0.00,,2013-05-21 20:22:00,
2013-05-21 16:32:00,87.0,64.0,29.98,NE,42,0.0,4.0,47,0.00,,,0.00,,2013-05-21 20:32:00,
2013-05-21 16:42:00,87.0,64.0,29.98,NE,42,0.0,4.0,47,0.00,,,0.00,,2013-05-21 20:42:00,
2013-05-21 16:52:00,85.0,64.0,29.98,ENE,68,0.0,5.0,50,0.00,,,0.00,,2013-05-21 20:52:00,
2013-05-21 17:02:00,82.0,64.0,29.99,NNW,329,0.0,4.0,55,0.00,,,0.00,,2013-05-21 21:02:00,
2013-05-21 17:11:00,82.0,64.0,29.99,NNW,329,0.0,4.0,55,0.00,,,0.00,,2013-05-21 21:11:00,
2013-05-21 17:22:00,79.0,61.0,29.99,SE,131,0.0,1.0,54,0.00,,,0.00,,2013-05-21 21:22:00,
2013-05-21 17:33:00,76.0,62.0,29.98,SE,131,0.0,1.0,63,0.00,,,0.00,,2013-05-21 21:33:00,
2013-05-21 17:43:00,75.0,62.0,29.97,SE,130,0.0,0.0,64,0.00,,,0.00,,2013-05-21 21:43:00,
2013-05-21 17:53:00,75.0,62.0,29.97,SE,130,0.0,0.0,64,0.00,,,0.00,,2013-05-21 21:53:00,
2013-05-21 18:02:00,75.0,63.0,29.97,ESE,110,0.0,1.0,66,0.00,,,0.00,,2013-05-21 22:02:00,
2013-05-21 18:12:00,75.0,63.0,29.97,ESE,110,0.0,1.0,66,0.00,,,0.00,,2013-05-21 22:12:00,
2013-05-21 18:23:00,75.0,64.0,29.97,East,84,0.0,2.0,69,0.00,,,0.00,,2013-05-21 22:23:00,
2013-05-21 18:33:00,74.0,62.0,29.97,East,84,0.0,1.0,67,0.00,,,0.00,,2013-05-21 22:33:00,
2013-05-21 18:42:00,74.0,62.0,29.97,East,84,0.0,1.0,67,0.00,,,0.00,,2013-05-21 22:42:00,
2013-05-21 18:52:00,73.0,63.0,29.96,East,84,0.0,0.0,71,0.00,,,0.00,,2013-05-21 22:52:00,
2013-05-21 19:02:00,72.0,62.0,29.98,East,84,0.0,1.0,72,0.00,,,0.00,,2013-05-21 23:02:00,
2013-05-21 19:12:00,72.0,62.0,29.98,East,84,0.0,1.0,72,0.00,,,0.00,,2013-05-21 23:12:00,
2013-05-21 19:22:00,71.0,62.0,29.98,SW,234,1.0,5.0,72,0.00,,,0.00,,2013-05-21 23:22:00,
2013-05-21 19:32:00,70.0,61.0,29.98,WSW,243,0.0,5.0,72,0.00,,,0.00,,2013-05-21 23:32:00,
2013-05-21 19:42:00,69.0,60.0,30.00,WSW,240,0.0,2.0,74,0.00,,,0.00,,2013-05-21 23:42:00,
2013-05-21 19:52:00,69.0,60.0,30.00,WSW,240,0.0,2.0,74,0.00,,,0.00,,2013-05-21 23:52:00,
2013-05-21 20:01:00,69.0,61.0,30.01,SW,222,0.0,1.0,75,0.00,,,0.00,,2013-05-22 00:01:00,
2013-05-21 20:11:00,69.0,61.0,30.01,SW,222,0.0,1.0,75,0.00,,,0.00,,2013-05-22 00:11:00,
2013-05-21 20:21:00,69.0,61.0,30.03,NNE,30,1.0,4.0,77,0.00,,,0.00,,2013-05-22 00:21:00,
2013-05-21 20:32:00,68.0,62.0,30.03,ESE,118,0.0,4.0,80,0.00,,,0.00,,2013-05-22 00:32:00,
2013-05-21 20:41:00,68.0,62.0,30.03,ESE,118,0.0,4.0,80,0.00,,,0.00,,2013-05-22 00:41:00,
2013-05-21 20:51:00,67.0,61.0,30.03,ESE,118,0.0,0.0,82,0.00,,,0.00,,2013-05-22 00:51:00,
2013-05-21 21:01:00,66.0,62.0,30.04,WSW,239,2.0,8.0,86,0.01,,,0.01,,2013-05-22 01:01:00,
2013-05-21 21:11:00,66.0,62.0,30.04,WSW,239,2.0,8.0,86,0.01,,,0.01,,2013-05-22 01:11:00,
2013-05-21 21:21:00,64.0,60.0,30.03,South,179,0.0,2.0,88,0.02,,,0.02,,2013-05-22 01:21:00,
2013-05-21 21:32:00,63.0,60.0,30.03,South,179,0.0,0.0,90,0.02,,,0.02,,2013-05-22 01:32:00,
2013-05-21 21:42:00,63.0,61.0,30.03,South,179,0.0,1.0,92,0.02,,,0.02,,2013-05-22 01:42:00,
2013-05-21 21:52:00,63.0,61.0,30.03,South,179,0.0,1.0,92,0.02,,,0.02,,2013-05-22 01:52:00,
2013-05-21 22:02:00,62.0,60.0,30.01,South,179,0.0,3.0,92,0.03,,,0.04,,2013-05-22 02:02:00,
2013-05-21 22:11:00,62.0,60.0,30.01,South,179,0.0,3.0,92,0.03,,,0.04,,2013-05-22 02:11:00,
2013-05-21 22:21:00,62.0,60.0,29.98,NW,305,1.0,3.0,93,0.02,,,0.04,,2013-05-22 02:21:00,
2013-05-21 22:32:00,61.0,59.0,30.00,NW,312,0.0,8.0,93,0.02,,,0.04,,2013-05-22 02:32:00,
2013-05-21 22:42:00,61.0,59.0,30.01,NNW,340,0.0,1.0,94,0.02,,,0.04,,2013-05-22 02:42:00,
2013-05-21 22:52:00,61.0,59.0,30.01,NNW,340,0.0,1.0,94,0.02,,,0.04,,2013-05-22 02:52:00,
2013-05-21 23:01:00,61.0,59.0,30.02,NNW,340,0.0,1.0,94,0.00,,,0.04,,2013-05-22 03:01:00,
2013-05-21 23:11:00,61.0,59.0,30.02,NNW,340,0.0,1.0,94,0.00,,,0.04,,2013-05-22 03:11:00,
2013-05-21 23:21:00,61.0,59.0,30.04,WNW,285,0.0,2.0,94,0.00,,,0.04,,2013-05-22 03:21:00,
2013-05-21 23:33:00,60.0,58.0,30.05,WNW,290,0.0,3.0,93,0.00,,,0.04,,2013-05-22 03:33:00,
2013-05-21 23:43:00,60.0,58.0,30.05,WNW,287,0.0,1.0,93,0.00,,,0.04,,2013-05-22 03:43:00,
2013-05-21 23:53:00,60.0,58.0,30.05,WNW,287,0.0,1.0,93,0.00,,,0.04,,2013-05-22 03:53:00,